Tracking 25648 objects as of 17-May-2022
HD Live streaming from Space Station
objects crossing your sky now

COSMOS 1174

Track COSMOS 1174 now!
10-day predictions
COSMOS 1174 is classified as:


NORAD ID: 11765
Int'l Code: 1980-030A
Perigee: 369.7 km
Apogee: 1,150.9 km
Inclination: 66.1 °
Period: 99.9 minutes
Semi major axis: 7131 km
RCS: 4.5129 m2 (large)
Launch date: April 18, 1980
Source: Commonwealth of Independent States (former USSR) (CIS)
Launch site: TYURATAM MISSILE AND SPACE COMPLEX (TTMTR)
aabbcc
Your satellite tracking list
Your tracking list is empty




NASA's NSSDC Master Catalog

Two Line Element Set (TLE):
1 11765U 80030A   22136.88422685  .00003421  00000-0  16462-3 0  9990
2 11765  66.0880  55.1279 0547748 303.5215  51.4686 14.41611709162668
Source of the keplerian elements: AFSPC